Simultaneous Nadir Overpasses (SNOs) Predictions

Prediction of SNOs between GOES-14 and NOAA-20 Satellite Orbit:

Table of predicted SNOs for the next 14.0 days since TLE Epoch: 9/11/2021
Index Date Time (GOES-14) GOES-14 Lat,Lon NOAA-20 Lat,Lon Distance(km) Time Diff (sec)
1 09/11/2021 08:26:47 0.39,-104.19 0.59,-105.16 110.57 80
2 09/12/2021 08:05:22 0.39,-104.17 -0.39,-100.62 404.56 80
3 09/13/2021 20:27:18 -0.38,-104.27 -0.78,-105.93 189.10 80
4 09/14/2021 20:11:14 -0.38,-104.28 0.25,-101.40 328.12 80
5 09/16/2021 08:33:01 0.37,-104.20 0.92,-106.67 281.74 80
6 09/17/2021 08:11:36 0.37,-104.18 -0.06,-102.13 233.33 80
7 09/18/2021 20:33:33 -0.36,-104.25 -1.05,-107.45 364.10 80
8 09/19/2021 20:17:27 -0.36,-104.26 -0.07,-102.91 153.71 80
9 09/21/2021 08:39:15 0.35,-104.22 1.25,-108.18 451.18 80
10 09/22/2021 08:17:50 0.36,-104.22 0.21,-103.65 64.58 80
11 09/24/2021 20:21:01 -0.35,-104.27 -0.39,-104.42 17.97 80
